| time (UTC) | temp C | wind direction | speed KPH | gust KPH | rain 1hr cm | rain 24hr cm | rain mn cm | humidity % | barometer mb |
| 20260903220343 | 18 | 246 | 0.0 | 0.0 | 0.00 | 0.03 | 0.03 | 68 | 1009.7 |
| 20260903215841 | 18 | 215 | 3.2 | 8.0 | 0.00 | 0.03 | 0.03 | 66 | 1010.0 |
| 20260903215338 | 18 | 233 | 0.0 | 0.0 | 0.00 | 0.03 | 0.03 | 66 | 1010.0 |
| 20260903214835 | 18 | 183 | 4.8 | 4.8 | 0.00 | 0.03 | 0.03 | 68 | 1009.7 |
| 20260903214332 | 18 | 283 | 1.6 | 3.2 | 0.00 | 0.03 | 0.03 | 68 | 1009.8 |
| 20260903213826 | 18 | 293 | 6.4 | 9.7 | 0.00 | 0.03 | 0.03 | 67 | 1009.5 |
| 20260903213321 | 18 | 247 | 3.2 | 12.9 | 0.00 | 0.03 | 0.03 | 66 | 1009.8 |
| 20260903212817 | 17 | 207 | 12.9 | 14.5 | 0.00 | 0.03 | 0.03 | 68 | 1009.8 |
| 20260903212314 | 17 | 223 | 6.4 | 8.0 | 0.00 | 0.03 | 0.03 | 69 | 1009.8 |
| 20260903211813 | 17 | 221 | 1.6 | 3.2 | 0.00 | 0.03 | 0.03 | 69 | 1009.6 |
| 20260903211309 | 17 | 147 | 3.2 | 3.2 | 0.00 | 0.03 | 0.03 | 69 | 1009.8 |
| 20260903210805 | 17 | 253 | 1.6 | 3.2 | 0.00 | 0.03 | 0.03 | 69 | 1009.8 |
| 20260903210259 | 17 | 248 | 3.2 | 8.0 | 0.00 | 0.03 | 0.03 | 68 | 1009.5 |
| 20260903205754 | 17 | 206 | 3.2 | 8.0 | 0.00 | 0.03 | 0.03 | 68 | 1009.7 |
| 20260903205254 | 17 | 238 | 4.8 | 8.0 | 0.00 | 0.03 | 0.03 | 69 | 1009.4 |
| 20260903204749 | 17 | 192 | 6.4 | 9.7 | 0.00 | 0.03 | 0.03 | 70 | 1009.5 |
| 20260903204245 | 17 | 206 | 4.8 | 11.3 | 0.00 | 0.03 | 0.03 | 70 | 1009.7 |
| 20260903203740 | 17 | 240 | 4.8 | 4.8 | 0.00 | 0.03 | 0.03 | 69 | 1009.6 |
| 20260903203236 | 17 | 258 | 1.6 | 3.2 | 0.00 | 0.03 | 0.03 | 70 | 1009.7 |
| 20260903202735 | 17 | 199 | 14.5 | 16.1 | 0.00 | 0.03 | 0.03 | 69 | 1009.8 |
| 20260903202231 | 17 | 216 | 9.7 | 12.9 | 0.00 | 0.03 | 0.03 | 69 | 1009.4 |
| 20260903201730 | 17 | 275 | 1.6 | 4.8 | 0.00 | 0.03 | 0.03 | 69 | 1009.4 |
| 20260903201226 | 18 | 226 | 6.4 | 9.7 | 0.00 | 0.03 | 0.03 | 66 | 1009.5 |
| 20260903200725 | 18 | 182 | 4.8 | 8.0 | 0.00 | 0.03 | 0.03 | 65 | 1009.6 |
| 20260903200220 | 18 | 216 | 8.0 | 9.7 | 0.00 | 0.03 | 0.03 | 65 | 1009.5 |
| 20260903195716 | 17 | 179 | 0.0 | 1.6 | 0.00 | 0.03 | 0.03 | 68 | 1009.5 |
| 20260903195212 | 17 | 224 | 4.8 | 4.8 | 0.00 | 0.03 | 0.03 | 71 | 1009.7 |
| 20260903194711 | 16 | 201 | 0.0 | 1.6 | 0.00 | 0.03 | 0.03 | 71 | 1009.6 |
| 20260903194207 | 16 | 187 | 0.0 | 0.0 | 0.00 | 0.03 | 0.03 | 72 | 1009.5 |
| 20260903193703 | 16 | 205 | 8.0 | 9.7 | 0.00 | 0.03 | 0.03 | 72 | 1009.6 |
| 20260903193203 | 17 | 225 | 6.4 | 11.3 | 0.00 | 0.03 | 0.03 | 71 | 1009.7 |
| 20260903192659 | 17 | 191 | 6.4 | 9.7 | 0.00 | 0.03 | 0.03 | 71 | 1009.6 |
| 20260903192154 | 17 | 218 | 9.7 | 11.3 | 0.00 | 0.03 | 0.03 | 70 | 1009.3 |
| 20260903191650 | 17 | 225 | 8.0 | 9.7 | 0.00 | 0.03 | 0.03 | 71 | 1009.4 |
| 20260903191150 | 17 | 224 | 9.7 | 11.3 | 0.00 | 0.03 | 0.03 | 71 | 1009.4 |
| 20260903190645 | 16 | 191 | 11.3 | 14.5 | 0.00 | 0.03 | 0.03 | 73 | 1009.4 |
| 20260903190139 | 16 | 204 | 11.3 | 14.5 | 0.00 | 0.03 | 0.03 | 72 | 1009.3 |
| 20260903185634 | 16 | 243 | 6.4 | 11.3 | 0.00 | 0.03 | 0.03 | 72 | 1009.3 |
| 20260903185129 | 16 | 211 | 3.2 | 8.0 | 0.00 | 0.03 | 0.03 | 71 | 1009.6 |
| 20260903184626 | 17 | 247 | 4.8 | 11.3 | 0.00 | 0.03 | 0.03 | 70 | 1009.4 |
| 20260903184122 | 16 | 183 | 9.7 | 11.3 | 0.00 | 0.03 | 0.03 | 72 | 1009.3 |
| 20260903183620 | 16 | 210 | 12.9 | 14.5 | 0.00 | 0.03 | 0.03 | 73 | 1009.3 |
| 20260903183115 | 16 | 207 | 8.0 | 11.3 | 0.00 | 0.03 | 0.03 | 73 | 1009.3 |
| 20260903182614 | 15 | 206 | 12.9 | 16.1 | 0.00 | 0.03 | 0.03 | 73 | 1009.4 |
| 20260903182110 | 15 | 164 | 12.9 | 17.7 | 0.00 | 0.03 | 0.03 | 73 | 1009.2 |
| 20260903181608 | 16 | 212 | 16.1 | 17.7 | 0.00 | 0.03 | 0.03 | 72 | 1009.3 |
| 20260903181103 | 16 | 186 | 9.7 | 11.3 | 0.00 | 0.03 | 0.03 | 73 | 1009.2 |
| 20260903180558 | 16 | 232 | 14.5 | 17.7 | 0.00 | 0.03 | 0.03 | 74 | 1009.2 |
| 20260903180053 | 16 | 192 | 14.5 | 14.5 | 0.00 | 0.03 | 0.03 | 74 | 1009.0 |
| 20260903175552 | 16 | 208 | 9.7 | 12.9 | 0.00 | 0.03 | 0.03 | 74 | 1009.2 |
| 20260903175052 | 16 | 203 | 3.2 | 3.2 | 0.00 | 0.03 | 0.03 | 75 | 1009.3 |
| 20260903174546 | 16 | 183 | 16.1 | 16.1 | 0.00 | 0.03 | 0.03 | 75 | 1009.2 |
| 20260903174041 | 16 | 209 | 4.8 | 8.0 | 0.00 | 0.03 | 0.03 | 74 | 1009.1 |
| 20260903173536 | 15 | 166 | 8.0 | 11.3 | 0.00 | 0.03 | 0.03 | 76 | 1009.0 |
| 20260903173032 | 15 | 171 | 8.0 | 11.3 | 0.00 | 0.03 | 0.03 | 77 | 1009.2 |
| 20260903172527 | 16 | 177 | 16.1 | 17.7 | 0.00 | 0.03 | 0.03 | 74 | 1009.0 |
| 20260903172023 | 16 | 183 | 3.2 | 3.2 | 0.00 | 0.03 | 0.03 | 74 | 1009.1 |
| 20260903171517 | 16 | 163 | 4.8 | 8.0 | 0.00 | 0.03 | 0.03 | 74 | 1008.9 |
| 20260903171013 | 16 | 209 | 14.5 | 16.1 | 0.00 | 0.03 | 0.03 | 74 | 1009.0 |
| 20260903170511 | 16 | 187 | 8.0 | 14.5 | 0.00 | 0.03 | 0.03 | 74 | 1009.0 |
| 20260903170007 | 16 | 217 | 4.8 | 8.0 | 0.00 | 0.03 | 0.03 | 74 | 1009.1 |
| 20260903165459 | 15 | 189 | 4.8 | 8.0 | 0.00 | 0.03 | 0.03 | 74 | 1008.8 |
| 20260903164955 | 15 | 207 | 11.3 | 11.3 | 0.00 | 0.03 | 0.03 | 76 | 1009.0 |
| 20260903164450 | 15 | 178 | 9.7 | 11.3 | 0.00 | 0.03 | 0.03 | 76 | 1008.9 |
| 20260903163949 | 15 | 177 | 17.7 | 20.9 | 0.00 | 0.03 | 0.03 | 77 | 1008.9 |
| 20260903163445 | 15 | 159 | 11.3 | 16.1 | 0.00 | 0.03 | 0.03 | 77 | 1008.9 |
| 20260903162941 | 15 | 203 | 16.1 | 17.7 | 0.00 | 0.03 | 0.03 | 76 | 1009.0 |
| 20260903162437 | 15 | 212 | 8.0 | 9.7 | 0.00 | 0.03 | 0.03 | 76 | 1009.0 |
| 20260903161933 | 15 | 182 | 12.9 | 16.1 | 0.00 | 0.03 | 0.03 | 77 | 1009.1 |
| 20260903161428 | 15 | 151 | 11.3 | 14.5 | 0.00 | 0.03 | 0.03 | 79 | 1009.1 |
| 20260903160924 | 15 | 177 | 11.3 | 12.9 | 0.00 | 0.03 | 0.03 | 79 | 1009.2 |
| 20260903160423 | 15 | 164 | 8.0 | 9.7 | 0.00 | 0.03 | 0.03 | 80 | 1008.9 |
| 20260903155921 | 15 | 160 | 11.3 | 11.3 | 0.00 | 0.03 | 0.03 | 81 | 1009.1 |
| 20260903155417 | 14 | 189 | 9.7 | 11.3 | 0.00 | 0.03 | 0.03 | 82 | 1008.9 |
| 20260903154913 | 14 | 195 | 11.3 | 14.5 | 0.00 | 0.03 | 0.03 | 83 | 1009.0 |
| 20260903154409 | 14 | 159 | 12.9 | 14.5 | 0.00 | 0.03 | 0.03 | 84 | 1008.9 |
| 20260903153909 | 14 | 212 | 3.2 | 3.2 | 0.00 | 0.03 | 0.03 | 85 | 1009.2 |
| 20260903153404 | 14 | 175 | 11.3 | 12.9 | 0.00 | 0.03 | 0.03 | 84 | 1008.8 |
| 20260903152901 | 14 | 116 | 6.4 | 11.3 | 0.00 | 0.03 | 0.03 | 84 | 1008.9 |
| 20260903152356 | 13 | 154 | 3.2 | 3.2 | 0.00 | 0.03 | 0.03 | 86 | 1008.8 |
| 20260903151852 | 13 | 194 | 11.3 | 12.9 | 0.00 | 0.03 | 0.03 | 86 | 1008.9 |
| 20260903151347 | 13 | 175 | 8.0 | 11.3 | 0.00 | 0.03 | 0.03 | 86 | 1009.0 |
| 20260903150846 | 13 | 152 | 6.4 | 8.0 | 0.00 | 0.03 | 0.03 | 85 | 1008.9 |
| 20260903150341 | 13 | 145 | 9.7 | 11.3 | 0.00 | 0.03 | 0.03 | 85 | 1009.2 |
| 20260903145836 | 13 | 142 | 4.8 | 4.8 | 0.00 | 0.03 | 0.03 | 86 | 1008.8 |
| 20260903145331 | 13 | 156 | 14.5 | 16.1 | 0.00 | 0.03 | 0.03 | 86 | 1008.9 |
| 20260903144830 | 13 | 181 | 4.8 | 9.7 | 0.00 | 0.03 | 0.03 | 86 | 1008.9 |
| 20260903144326 | 13 | 131 | 6.4 | 8.0 | 0.00 | 0.03 | 0.03 | 86 | 1008.6 |
| 20260903143821 | 13 | 187 | 9.7 | 11.3 | 0.00 | 0.03 | 0.03 | 87 | 1008.9 |
| 20260903143318 | 13 | 186 | 11.3 | 12.9 | 0.00 | 0.03 | 0.03 | 87 | 1008.6 |
| 20260903142813 | 13 | 199 | 14.5 | 16.1 | 0.00 | 0.03 | 0.03 | 88 | 1008.7 |
| 20260903142309 | 13 | 195 | 4.8 | 8.0 | 0.00 | 0.03 | 0.03 | 89 | 1008.8 |
| 20260903141805 | 13 | 148 | 8.0 | 9.7 | 0.00 | 0.03 | 0.03 | 89 | 1008.5 |
| 20260903141301 | 12 | 151 | 8.0 | 11.3 | 0.00 | 0.03 | 0.03 | 90 | 1008.7 |
| 20260903140800 | 13 | 196 | 3.2 | 3.2 | 0.00 | 0.03 | 0.03 | 90 | 1008.5 |
| 20260903140255 | 12 | 200 | 8.0 | 9.7 | 0.00 | 0.03 | 0.03 | 90 | 1008.5 |
| 20260903135751 | 12 | 171 | 4.8 | 8.0 | 0.00 | 0.03 | 0.03 | 90 | 1008.6 |
| 20260903135246 | 13 | 210 | 9.7 | 11.3 | 0.00 | 0.03 | 0.03 | 90 | 1008.4 |
| 20260903134745 | 12 | 187 | 8.0 | 12.9 | 0.00 | 0.03 | 0.03 | 89 | 1008.6 |
| 20260903134241 | 12 | 167 | 9.7 | 12.9 | 0.00 | 0.03 | 0.03 | 89 | 1008.4 |
| 20260903133738 | 12 | 173 | 14.5 | 16.1 | 0.00 | 0.03 | 0.03 | 89 | 1008.4 |
| 20260903133235 | 12 | 188 | 8.0 | 9.7 | 0.00 | 0.03 | 0.03 | 88 | 1008.3 |
| 20260903132734 | 13 | 183 | 8.0 | 9.7 | 0.00 | 0.03 | 0.03 | 88 | 1008.1 |
| 20260903132230 | 13 | 162 | 12.9 | 16.1 | 0.00 | 0.03 | 0.03 | 88 | 1008.2 |
| 20260903131725 | 13 | 169 | 8.0 | 11.3 | 0.00 | 0.03 | 0.03 | 89 | 1008.2 |
| 20260903131224 | 13 | 201 | 8.0 | 9.7 | 0.00 | 0.03 | 0.03 | 89 | 1008.1 |
| 20260903130719 | 13 | 161 | 6.4 | 9.7 | 0.00 | 0.03 | 0.03 | 89 | 1008.2 |
| 20260903130214 | 13 | 187 | 4.8 | 8.0 | 0.00 | 0.03 | 0.03 | 89 | 1008.1 |
| 20260903125712 | 13 | 148 | 6.4 | 9.7 | 0.00 | 0.03 | 0.03 | 88 | 1008.0 |
| 20260903125208 | 13 | 166 | 8.0 | 11.3 | 0.00 | 0.03 | 0.03 | 87 | 1008.0 |
| 20260903124707 | 13 | 184 | 12.9 | 14.5 | 0.00 | 0.03 | 0.03 | 86 | 1008.1 |
| 20260903124202 | 13 | 212 | 8.0 | 17.7 | 0.00 | 0.03 | 0.03 | 83 | 1008.0 |
| 20260903123701 | 13 | 208 | 20.9 | 24.1 | 0.00 | 0.03 | 0.03 | 81 | 1008.2 |
| 20260903123200 | 13 | 185 | 11.3 | 11.3 | 0.00 | 0.03 | 0.03 | 82 | 1008.0 |
| 20260903122659 | 13 | 158 | 6.4 | 8.0 | 0.00 | 0.03 | 0.03 | 82 | 1008.1 |
| 20260903122154 | 13 | 176 | 6.4 | 8.0 | 0.00 | 0.03 | 0.03 | 81 | 1008.1 |
| 20260903121653 | 13 | 189 | 9.7 | 11.3 | 0.00 | 0.03 | 0.03 | 82 | 1008.1 |
| 20260903121149 | 13 | 156 | 6.4 | 8.0 | 0.00 | 0.03 | 0.03 | 83 | 1007.9 |
| 20260903120648 | 13 | 235 | 0.0 | 0.0 | 0.00 | 0.03 | 0.03 | 83 | 1008.0 |
| 20260903120143 | 13 | 187 | 11.3 | 11.3 | 0.00 | 0.03 | 0.03 | 82 | 1008.0 |
| 20260903115641 | 13 | 179 | 6.4 | 9.7 | 0.00 | 0.03 | 0.03 | 82 | 1007.7 |
| 20260903115137 | 13 | 178 | 4.8 | 4.8 | 0.00 | 0.03 | 0.03 | 82 | 1007.8 |
| 20260903114632 | 13 | 172 | 1.6 | 3.2 | 0.00 | 0.03 | 0.03 | 82 | 1007.8 |
| 20260903114127 | 13 | 156 | 4.8 | 4.8 | 0.00 | 0.03 | 0.03 | 82 | 1007.8 |
| 20260903113622 | 13 | 124 | 4.8 | 8.0 | 0.00 | 0.03 | 0.03 | 82 | 1007.8 |
| 20260903113118 | 13 | 179 | 4.8 | 8.0 | 0.00 | 0.03 | 0.03 | 83 | 1007.8 |
| 20260903112615 | 13 | 165 | 3.2 | 4.8 | 0.00 | 0.03 | 0.03 | 83 | 1007.7 |
| 20260903112114 | 13 | 168 | 8.0 | 11.3 | 0.00 | 0.03 | 0.03 | 84 | 1007.8 |
| 20260903111613 | 13 | 209 | 4.8 | 4.8 | 0.13 | 0.03 | 0.03 | 84 | 1007.9 |
| 20260903111109 | 13 | 210 | 1.6 | 3.2 | 0.13 | 0.03 | 0.03 | 84 | 1007.7 |
| 20260903110605 | 13 | 192 | 6.4 | 8.0 | 0.00 | 0.00 | 0.00 | 83 | 1007.9 |
| 20260903110100 | 13 | 188 | 8.0 | 9.7 | 0.00 | 0.00 | 0.00 | 84 | 1007.7 |
| 20260903105554 | 13 | 198 | 4.8 | 4.8 | 0.00 | 0.00 | 0.00 | 84 | 1007.8 |
| 20260903105044 | 13 | 199 | 6.4 | 8.0 | 0.00 | 0.00 | 0.00 | 84 | 1007.8 |
| 20260903104543 | 13 | 161 | 8.0 | 9.7 | 0.00 | 0.00 | 0.00 | 83 | 1007.7 |
| 20260903104039 | 13 | 197 | 12.9 | 14.5 | 0.00 | 0.00 | 0.00 | 83 | 1007.7 |
| 20260903103535 | 13 | 160 | 14.5 | 17.7 | 0.00 | 0.00 | 0.00 | 83 | 1007.7 |
| 20260903103031 | 13 | 188 | 9.7 | 11.3 | 0.00 | 0.00 | 0.00 | 83 | 1007.8 |
| 20260903102526 | 13 | 177 | 8.0 | 9.7 | 0.00 | 0.00 | 0.00 | 83 | 1007.6 |
| 20260903102025 | 13 | 144 | 8.0 | 9.7 | 0.00 | 0.00 | 0.00 | 83 | 1007.7 |
| 20260903101520 | 13 | 147 | 6.4 | 9.7 | 0.00 | 0.00 | 0.00 | 82 | 1007.5 |
| 20260903101016 | 13 | 182 | 4.8 | 8.0 | 0.00 | 0.00 | 0.00 | 83 | 1007.6 |
| 20260903100511 | 13 | 186 | 6.4 | 8.0 | 0.00 | 0.00 | 0.00 | 82 | 1007.4 |
| 20260903100009 | 13 | 192 | 6.4 | 8.0 | 0.00 | 0.00 | 0.00 | 82 | 1007.6 |
| 20260903095502 | 13 | 183 | 9.7 | 14.5 | 0.00 | 0.00 | 0.00 | 82 | 1007.5 |
| 20260903094957 | 13 | 120 | 4.8 | 4.8 | 0.00 | 0.00 | 0.00 | 82 | 1007.8 |
| 20260903094456 | 13 | 125 | 4.8 | 8.0 | 0.00 | 0.00 | 0.00 | 82 | 1007.6 |
| 20260903093953 | 13 | 215 | 4.8 | 8.0 | 0.00 | 0.00 | 0.00 | 82 | 1007.7 |
| 20260903093448 | 13 | 202 | 9.7 | 11.3 | 0.00 | 0.00 | 0.00 | 81 | 1007.4 |
| 20260903092944 | 14 | 206 | 8.0 | 9.7 | 0.00 | 0.00 | 0.00 | 81 | 1007.6 |
| 20260903092443 | 14 | 206 | 0.0 | 1.6 | 0.00 | 0.00 | 0.00 | 81 | 1007.6 |
| 20260903091942 | 14 | 181 | 4.8 | 4.8 | 0.00 | 0.00 | 0.00 | 81 | 1007.4 |
| 20260903091440 | 14 | 198 | 8.0 | 11.3 | 0.00 | 0.00 | 0.00 | 80 | 1007.4 |
| 20260903090936 | 14 | 234 | 8.0 | 9.7 | 0.00 | 0.00 | 0.00 | 80 | 1007.5 |
| 20260903090432 | 14 | 203 | 8.0 | 11.3 | 0.00 | 0.00 | 0.00 | 80 | 1007.2 |
| 20260903085930 | 14 | 204 | 6.4 | 9.7 | 0.00 | 0.00 | 0.00 | 80 | 1007.4 |
| 20260903085428 | 14 | 197 | 12.9 | 14.5 | 0.00 | 0.00 | 0.00 | 81 | 1007.4 |
| 20260903084928 | 14 | 201 | 11.3 | 14.5 | 0.00 | 0.00 | 0.00 | 82 | 1007.3 |
| 20260903084427 | 13 | 194 | 9.7 | 11.3 | 0.00 | 0.00 | 0.00 | 84 | 1007.3 |
| 20260903083922 | 13 | 194 | 8.0 | 9.7 | 0.00 | 0.00 | 0.00 | 84 | 1007.4 |
| 20260903083419 | 13 | 188 | 8.0 | 11.3 | 0.00 | 0.00 | 0.00 | 85 | 1007.3 |
| 20260903082917 | 13 | 182 | 4.8 | 4.8 | 0.00 | 0.00 | 0.00 | 84 | 1007.4 |
| 20260903082412 | 13 | 175 | 8.0 | 9.7 | 0.00 | 0.00 | 0.00 | 84 | 1007.5 |
| 20260903081908 | 13 | 126 | 8.0 | 9.7 | 0.00 | 0.00 | 0.00 | 84 | 1007.3 |
| 20260903081403 | 13 | 184 | 4.8 | 4.8 | 0.00 | 0.00 | 0.00 | 83 | 1007.4 |
| 20260903080859 | 13 | 182 | 6.4 | 8.0 | 0.00 | 0.00 | 0.00 | 83 | 1007.5 |
| 20260903080356 | 14 | 203 | 6.4 | 8.0 | 0.00 | 0.00 | 0.00 | 83 | 1007.5 |
| 20260903075855 | 14 | 151 | 11.3 | 12.9 | 0.00 | 0.00 | 0.00 | 82 | 1007.3 |
| 20260903075351 | 14 | 189 | 11.3 | 12.9 | 0.00 | 0.00 | 0.00 | 80 | 1007.3 |
| 20260903074850 | 14 | 222 | 8.0 | 11.3 | 0.00 | 0.00 | 0.00 | 80 | 1007.1 |
| 20260903074345 | 14 | 199 | 11.3 | 14.5 | 0.00 | 0.00 | 0.00 | 81 | 1007.1 |
| 20260903073841 | 14 | 196 | 11.3 | 12.9 | 0.00 | 0.00 | 0.00 | 81 | 1007.1 |
| 20260903073335 | 14 | 180 | 16.1 | 22.5 | 0.00 | 0.00 | 0.00 | 81 | 1007.1 |
| 20260903072831 | 14 | 201 | 12.9 | 14.5 | 0.00 | 0.00 | 0.00 | 81 | 1007.2 |
| 20260903072327 | 14 | 182 | 12.9 | 14.5 | 0.00 | 0.00 | 0.00 | 80 | 1007.2 |
| 20260903071824 | 15 | 173 | 9.7 | 11.3 | 0.00 | 0.00 | 0.00 | 80 | 1007.1 |
| 20260903071320 | 15 | 201 | 14.5 | 17.7 | 0.00 | 0.00 | 0.00 | 79 | 1006.8 |
| 20260903070814 | 15 | 194 | 16.1 | 17.7 | 0.00 | 0.00 | 0.00 | 80 | 1007.0 |
| 20260903070310 | 15 | 197 | 17.7 | 25.7 | 0.00 | 0.00 | 0.00 | 80 | 1007.1 |
| 20260903065805 | 15 | 231 | 11.3 | 16.1 | 0.00 | 0.36 | 0.36 | 80 | 1006.9 |
| 20260903065306 | 14 | 160 | 14.5 | 16.1 | 0.00 | 0.36 | 0.36 | 83 | 1007.2 |
| 20260903064803 | 14 | 182 | 11.3 | 12.9 | 0.00 | 0.36 | 0.36 | 84 | 1007.2 |
| 20260903064259 | 14 | 172 | 6.4 | 8.0 | 0.00 | 0.36 | 0.36 | 84 | 1007.0 |
| 20260903063755 | 14 | 200 | 6.4 | 9.7 | 0.00 | 0.36 | 0.36 | 85 | 1007.0 |
| 20260903063249 | 14 | 199 | 8.0 | 9.7 | 0.00 | 0.36 | 0.36 | 84 | 1007.1 |
| 20260903062746 | 15 | 159 | 8.0 | 9.7 | 0.00 | 0.36 | 0.36 | 82 | 1007.1 |
| 20260903062244 | 15 | 199 | 6.4 | 8.0 | 0.00 | 0.36 | 0.36 | 81 | 1007.1 |
| 20260903061741 | 15 | 198 | 6.4 | 9.7 | 0.00 | 0.36 | 0.36 | 82 | 1007.2 |
| 20260903061233 | 15 | 201 | 11.3 | 16.1 | 0.00 | 0.36 | 0.36 | 83 | 1007.2 |
| 20260903060730 | 15 | 195 | 12.9 | 16.1 | 0.00 | 0.36 | 0.36 | 84 | 1007.1 |
| 20260903060229 | 14 | 175 | 12.9 | 14.5 | 0.00 | 0.36 | 0.36 | 85 | 1007.2 |
| 20260903055727 | 14 | 203 | 8.0 | 9.7 | 0.00 | 0.36 | 0.36 | 87 | 1007.0 |
| 20260903055226 | 14 | 199 | 11.3 | 12.9 | 0.00 | 0.36 | 0.36 | 88 | 1006.9 |
| 20260903054721 | 14 | 169 | 11.3 | 11.3 | 0.00 | 0.36 | 0.36 | 88 | 1007.1 |
| 20260903054216 | 15 | 141 | 9.7 | 12.9 | 0.00 | 0.36 | 0.36 | 87 | 1006.9 |
| 20260903053713 | 15 | 177 | 8.0 | 9.7 | 0.00 | 0.36 | 0.36 | 86 | 1006.9 |
| 20260903053207 | 15 | 203 | 8.0 | 8.0 | 0.00 | 0.36 | 0.36 | 83 | 1007.2 |
| 20260903052703 | 15 | 180 | 14.5 | 20.9 | 0.00 | 0.36 | 0.36 | 83 | 1007.0 |
| 20260903052158 | 15 | 198 | 6.4 | 8.0 | 0.00 | 0.36 | 0.36 | 81 | 1006.8 |
| 20260903051653 | 15 | 219 | 8.0 | 9.7 | 0.00 | 0.36 | 0.36 | 80 | 1007.1 |
| 20260903051149 | 15 | 178 | 17.7 | 20.9 | 0.00 | 0.36 | 0.36 | 81 | 1006.8 |
| 20260903050644 | 15 | 194 | 16.1 | 20.9 | 0.00 | 0.36 | 0.36 | 80 | 1006.9 |
| 20260903050138 | 15 | 192 | 9.7 | 14.5 | 0.00 | 0.36 | 0.36 | 79 | 1006.9 |
| 20260903045637 | 15 | 184 | 12.9 | 14.5 | 0.00 | 0.36 | 0.36 | 80 | 1006.8 |
| 20260903045134 | 15 | 199 | 16.1 | 17.7 | 0.00 | 0.36 | 0.36 | 80 | 1006.9 |
| 20260903044630 | 15 | 195 | 16.1 | 20.9 | 0.00 | 0.36 | 0.36 | 81 | 1006.9 |
| 20260903044126 | 15 | 160 | 14.5 | 17.7 | 0.00 | 0.36 | 0.36 | 81 | 1006.9 |
| 20260903043622 | 15 | 210 | 11.3 | 14.5 | 0.00 | 0.36 | 0.36 | 81 | 1006.9 |
| 20260903043121 | 15 | 212 | 14.5 | 20.9 | 0.00 | 0.36 | 0.36 | 81 | 1006.8 |
| 20260903042620 | 15 | 186 | 8.0 | 12.9 | 0.00 | 0.36 | 0.36 | 81 | 1006.8 |
| 20260903042116 | 15 | 237 | 6.4 | 11.3 | 0.00 | 0.36 | 0.36 | 82 | 1006.8 |
| 20260903041612 | 15 | 214 | 12.9 | 16.1 | 0.00 | 0.36 | 0.36 | 82 | 1006.7 |
| 20260903041108 | 15 | 177 | 8.0 | 9.7 | 0.00 | 0.36 | 0.36 | 83 | 1006.9 |
| 20260903040607 | 15 | 204 | 11.3 | 16.1 | 0.00 | 0.36 | 0.36 | 83 | 1006.7 |
| 20260903040103 | 15 | 185 | 11.3 | 12.9 | 0.00 | 0.36 | 0.36 | 84 | 1006.6 |
| 20260903035558 | 15 | 176 | 6.4 | 8.0 | 0.00 | 0.36 | 0.36 | 84 | 1006.6 |
| 20260903035054 | 15 | 189 | 11.3 | 12.9 | 0.00 | 0.36 | 0.36 | 83 | 1006.5 |
| 20260903034549 | 15 | 191 | 11.3 | 12.9 | 0.00 | 0.36 | 0.36 | 81 | 1006.4 |
| 20260903034044 | 15 | 190 | 8.0 | 9.7 | 0.00 | 0.36 | 0.36 | 80 | 1006.6 |
| 20260903033539 | 15 | 188 | 11.3 | 14.5 | 0.00 | 0.36 | 0.36 | 80 | 1006.4 |
| 20260903033035 | 15 | 195 | 12.9 | 16.1 | 0.00 | 0.36 | 0.36 | 80 | 1006.3 |
| 20260903032529 | 15 | 192 | 11.3 | 14.5 | 0.00 | 0.36 | 0.36 | 81 | 1006.2 |
| 20260903032025 | 15 | 240 | 4.8 | 4.8 | 0.00 | 0.36 | 0.36 | 81 | 1006.3 |
| 20260903031524 | 15 | 191 | 11.3 | 14.5 | 0.00 | 0.36 | 0.36 | 81 | 1006.2 |
| 20260903031020 | 15 | 180 | 8.0 | 12.9 | 0.00 | 0.36 | 0.36 | 81 | 1006.1 |
| 20260903030515 | 15 | 199 | 12.9 | 16.1 | 0.00 | 0.36 | 0.36 | 81 | 1005.9 |
| 20260903030011 | 15 | 182 | 12.9 | 14.5 | 0.00 | 0.36 | 0.36 | 82 | 1006.0 |
| 20260903025506 | 15 | 193 | 12.9 | 16.1 | 0.00 | 0.36 | 0.36 | 83 | 1005.8 |
| 20260903025002 | 15 | 197 | 9.7 | 12.9 | 0.00 | 0.36 | 0.36 | 83 | 1005.7 |
| 20260903024501 | 15 | 205 | 16.1 | 20.9 | 0.00 | 0.36 | 0.36 | 83 | 1005.6 |
| 20260903023955 | 15 | 226 | 17.7 | 22.5 | 0.00 | 0.36 | 0.36 | 83 | 1005.4 |
| 20260903023451 | 15 | 201 | 11.3 | 14.5 | 0.00 | 0.36 | 0.36 | 83 | 1005.4 |
| 20260903022946 | 15 | 206 | 16.1 | 20.9 | 0.00 | 0.36 | 0.36 | 84 | 1005.4 |
| 20260903022445 | 15 | 216 | 12.9 | 14.5 | 0.00 | 0.36 | 0.36 | 84 | 1005.3 |
| 20260903021943 | 15 | 212 | 12.9 | 14.5 | 0.00 | 0.36 | 0.36 | 84 | 1005.3 |
| 20260903021439 | 15 | 192 | 14.5 | 22.5 | 0.00 | 0.36 | 0.36 | 84 | 1005.2 |
| 20260903020935 | 15 | 199 | 17.7 | 24.1 | 0.00 | 0.36 | 0.36 | 84 | 1005.1 |
| 20260903020430 | 15 | 196 | 22.5 | 25.7 | 0.00 | 0.36 | 0.36 | 83 | 1005.3 |
| 20260903015925 | 15 | 174 | 11.3 | 14.5 | 0.00 | 0.36 | 0.36 | 83 | 1005.1 |
| 20260903015421 | 15 | 225 | 12.9 | 16.1 | 0.00 | 0.36 | 0.36 | 83 | 1005.0 |
| 20260903014915 | 15 | 188 | 9.7 | 12.9 | 0.00 | 0.36 | 0.36 | 82 | 1005.0 |
| 20260903014415 | 15 | 203 | 16.1 | 20.9 | 0.00 | 0.36 | 0.36 | 82 | 1005.0 |
| 20260903013910 | 15 | 204 | 19.3 | 22.5 | 0.00 | 0.36 | 0.36 | 83 | 1005.1 |
| 20260903013409 | 15 | 218 | 17.7 | 22.5 | 0.00 | 0.36 | 0.36 | 84 | 1004.7 |
| 20260903012909 | 15 | 194 | 22.5 | 33.8 | 0.00 | 0.36 | 0.36 | 84 | 1004.8 |
| 20260903012409 | 15 | 219 | 20.9 | 22.5 | 0.00 | 0.36 | 0.36 | 84 | 1004.7 |
| 20260903011908 | 15 | 174 | 16.1 | 17.7 | 0.00 | 0.36 | 0.36 | 86 | 1004.7 |
| 20260903011407 | 15 | 197 | 6.4 | 11.3 | 0.00 | 0.36 | 0.36 | 88 | 1004.7 |
| 20260903010903 | 15 | 193 | 22.5 | 27.4 | 0.00 | 0.36 | 0.36 | 86 | 1004.8 |
| 20260903010358 | 16 | 202 | 8.0 | 9.7 | 0.00 | 0.36 | 0.36 | 87 | 1004.5 |
| 20260903005856 | 16 | 186 | 11.3 | 14.5 | 0.00 | 0.36 | 0.36 | 87 | 1004.3 |
| 20260903005351 | 16 | 170 | 8.0 | 11.3 | 0.00 | 0.36 | 0.36 | 87 | 1004.3 |
| 20260903004849 | 16 | 155 | 14.5 | 20.9 | 0.00 | 0.36 | 0.36 | 86 | 1004.2 |
| 20260903004344 | 16 | 197 | 17.7 | 20.9 | 0.00 | 0.36 | 0.36 | 85 | 1004.2 |
| 20260903003839 | 16 | 149 | 12.9 | 14.5 | 0.00 | 0.36 | 0.36 | 86 | 1004.2 |
| 20260903003338 | 16 | 186 | 24.1 | 32.2 | 0.00 | 0.36 | 0.36 | 85 | 1004.0 |
| 20260903002833 | 16 | 204 | 17.7 | 20.9 | 0.00 | 0.36 | 0.36 | 84 | 1004.0 |
| 20260903002328 | 16 | 182 | 22.5 | 25.7 | 0.00 | 0.36 | 0.36 | 85 | 1004.0 |
| 20260903001822 | 15 | 182 | 14.5 | 17.7 | 0.00 | 0.36 | 0.36 | 89 | 1004.1 |
| 20260903001318 | 15 | 162 | 9.7 | 11.3 | 0.00 | 0.36 | 0.36 | 90 | 1003.9 |
| 20260903000818 | 15 | 177 | 16.1 | 22.5 | 0.00 | 0.36 | 0.36 | 92 | 1004.0 |
| 20260903000313 | 15 | 110 | 16.1 | 20.9 | 0.00 | 0.36 | 0.36 | 94 | 1003.9 |
| 20260902235810 | 15 | 205 | 8.0 | 11.3 | 0.00 | 0.36 | 0.36 | 95 | 1003.8 |
| 20260902235306 | 15 | 145 | 11.3 | 12.9 | 0.00 | 0.36 | 0.36 | 95 | 1004.2 |
| 20260902234800 | 15 | 167 | 9.7 | 11.3 | 0.00 | 0.36 | 0.36 | 95 | 1003.8 |
| 20260902234259 | 15 | 111 | 9.7 | 11.3 | 0.00 | 0.36 | 0.36 | 94 | 1004.0 |
| 20260902233754 | 15 | 131 | 8.0 | 12.9 | 0.00 | 0.36 | 0.36 | 94 | 1003.9 |
| 20260902233253 | 15 | 109 | 4.8 | 4.8 | 0.00 | 0.36 | 0.36 | 94 | 1003.9 |
| 20260902232752 | 15 | 115 | 8.0 | 9.7 | 0.18 | 0.36 | 0.36 | 93 | 1004.3 |
| 20260902232247 | 15 | 120 | 4.8 | 8.0 | 0.30 | 0.36 | 0.36 | 94 | 1004.4 |
| 20260902231746 | 15 | 187 | 6.4 | 9.7 | 0.30 | 0.33 | 0.33 | 93 | 1004.4 |
| 20260902231241 | 15 | 194 | 11.3 | 11.3 | 0.30 | 0.30 | 0.30 | 92 | 1004.6 |
| 20260902230741 | 15 | 189 | 8.0 | 9.7 | 0.30 | 0.28 | 0.28 | 92 | 1004.6 |
| 20260902230240 | 15 | 197 | 9.7 | 11.3 | 0.18 | 0.25 | 0.25 | 92 | 1004.3 |
| 20260902225735 | 15 | 193 | 17.7 | 17.7 | 0.36 | 0.25 | 0.25 | 92 | 1004.3 |
| 20260902225230 | 15 | 176 | 4.8 | 8.0 | 0.30 | 0.23 | 0.23 | 92 | 1004.4 |
| 20260902224729 | 15 | 204 | 4.8 | 4.8 | 0.13 | 0.20 | 0.20 | 91 | 1004.3 |
| 20260902224224 | 15 | 171 | 6.4 | 8.0 | 0.18 | 0.18 | 0.18 | 92 | 1004.2 |
| 20260902223721 | 15 | 174 | 11.3 | 12.9 | 0.13 | 0.15 | 0.15 | 91 | 1004.4 |
| 20260902223219 | 15 | 235 | 4.8 | 4.8 | 0.13 | 0.15 | 0.15 | 91 | 1004.2 |
| 20260902222719 | 15 | 173 | 11.3 | 14.5 | 0.18 | 0.13 | 0.13 | 91 | 1004.5 |
| 20260902222213 | 15 | 210 | 8.0 | 9.7 | 0.18 | 0.13 | 0.13 | 91 | 1004.3 |
| 20260902221707 | 15 | 199 | 4.8 | 4.8 | 0.00 | 0.10 | 0.10 | 91 | 1004.4 |
| 20260902221201 | 15 | 236 | 6.4 | 9.7 | 0.00 | 0.10 | 0.10 | 90 | 1004.5 |
| 20260902220656 | 15 | 200 | 4.8 | 8.0 | 0.13 | 0.10 | 0.10 | 90 | 1004.1 |